Weather History for Idaho Falls, ID

Change the Weather History Date:

Friday, April 26, 2013

  Actual Average Record
Temperature  
Mean Temperature 47 °F 47 °F  
Max Temperature 68 °F 61 °F 82 °F (1992)
Min Temperature 26 °F 34 °F 21 °F (2008)
Degree Days  
Heating Degree Days 18 18  
Month to date heating degree days 594 542  
Since 1 July heating degree days 7053 7246  
Cooling Degree Days 0 0  
Month to date cooling degree days 0 0  
Year to date cooling degree days 0 0  
Moisture  
Dew Point 21 °F    
Average Humidity 40    
Maximum Humidity 63    
Minimum Humidity 16    
Precipitation  
Precipitation 0.00 in 0.05 in 0.58 in (1971)
Month to date precipitation 0.52 0.94  
Year to date precipitation 1.36 3.15  
Sea Level Pressure  
Sea Level Pressure 30.16 in    
Wind  
Wind Speed 7 mph (SSW)    
Max Wind Speed 17 mph    
Max Gust Speed 23 mph    
Visibility 10 miles    
Events      
T = Trace of Precipitation, MM = Missing Value Source: NWS Daily Summary

Daily Weather History Graph

Daily Weather History Graph

Search for Another Location

Airport:

Trip Planner

Search our weather history database for the weather conditions in past years. The results will help you decide how hot, cold, wet, or windy it might be!

Date:

Astronomy

Apr. 26, 2013 Rise Set
Actual Time 6:27 AM MDT 8:24 PM MDT
Civil Twilight 5:56 AM MDT 8:55 PM MDT
Nautical Twilight 5:19 AM MDT 9:33 PM MDT
Astronomical Twilight 4:38 AM MDT 10:15 PM MDT
Moon 9:54 PM MDT (4/26) 6:56 AM MDT (4/26)
Length of Visible Light 14h 58m
Length of Day
13h 57m
Full, 99% of the Moon is Illuminated
Apr 26
Full
May 2
Last Quarter
May 9
New
May 17
First Quarter
May 24
Full

Hourly Weather History & Observations

Time (MDT) Temp. Windchill Dew Point Humidity Pressure Visibility Wind Dir Wind Speed Gust Speed Precip Events Conditions
1:53 AM 42.1 °F 37.1 °F 19.0 °F 40% 30.04 in 10.0 mi SSW 8.1 mph - N/A   Clear
2:53 AM 39.0 °F 34.8 °F 21.0 °F 49% 30.07 in 10.0 mi SSW 5.8 mph - N/A   Clear
3:53 AM 35.1 °F - 19.9 °F 54% 30.09 in 10.0 mi Calm Calm - N/A   Clear
4:53 AM 32.0 °F 26.4 °F 19.0 °F 59% 30.12 in 10.0 mi WNW 5.8 mph - N/A   Clear
5:53 AM 32.0 °F - 18.0 °F 56% 30.15 in 10.0 mi Calm Calm - N/A   Clear
6:53 AM 28.9 °F - 18.0 °F 64% 30.18 in 10.0 mi Calm Calm - N/A   Clear
7:53 AM 36.0 °F - 21.9 °F 57% 30.20 in 10.0 mi Calm Calm - N/A   Clear
8:53 AM 44.1 °F 40.8 °F 21.0 °F 40% 30.20 in 10.0 mi SW 5.8 mph - N/A   Clear
9:53 AM 50.0 °F - 23.0 °F 35% 30.22 in 10.0 mi Variable 6.9 mph - N/A   Clear
10:53 AM 55.0 °F - 21.9 °F 28% 30.21 in 10.0 mi SSW 5.8 mph - N/A   Clear
11:53 AM 57.9 °F - 21.9 °F 25% 30.20 in 10.0 mi Variable 4.6 mph - N/A   Clear
12:53 PM 62.1 °F - 24.1 °F 23% 30.20 in 10.0 mi Variable 4.6 mph - N/A   Clear
1:53 PM 64.9 °F - 21.0 °F 19% 30.18 in 10.0 mi South 10.4 mph - N/A   Clear
2:53 PM 66.0 °F - 19.9 °F 17% 30.18 in 10.0 mi SSW 13.8 mph 19.6 mph N/A   Clear
3:53 PM 66.9 °F - 19.9 °F 17% 30.18 in 10.0 mi South 12.7 mph 19.6 mph N/A   Clear
4:53 PM 66.9 °F - 19.0 °F 16% 30.18 in 10.0 mi WSW 8.1 mph 19.6 mph N/A   Clear
5:53 PM 66.9 °F - 21.0 °F 17% 30.17 in 10.0 mi WSW 12.7 mph - N/A   Clear
6:53 PM 66.0 °F - 19.9 °F 17% 30.18 in 10.0 mi South 12.7 mph - N/A   Clear
7:53 PM 64.9 °F - 23.0 °F 20% 30.15 in 10.0 mi South 11.5 mph - N/A   Clear
8:53 PM 61.0 °F - 23.0 °F 23% 30.15 in 10.0 mi South 11.5 mph - N/A   Clear
9:53 PM 57.9 °F - 23.0 °F 26% 30.17 in 10.0 mi South 10.4 mph - N/A   Clear
10:53 PM 55.9 °F - 24.1 °F 29% 30.17 in 10.0 mi SSW 11.5 mph - N/A   Clear
11:53 PM 50.0 °F - 25.0 °F 38% 30.18 in 10.0 mi SSW 8.1 mph - N/A   Clear